SL-16 DEB, 22442

Orbit data source: Space-Track

SL-16 DEB, 22442 is space debris in LEO originally from a launch on Fri, 25 Dec 1992 UTC launched from the Tyuratam Missile And Space Complex (TTMTR). Debris objects in space refer to the collection of defunct objects orbiting the Earth. Examples of debris include non-operational satellites, rocket bodies, and fragments generated from explosions, collisions, or faulty payload assembly.

Loading next visibility...
Identifier
22442, 1992-093EK
Orbit
LEO
Country
Flag of CISCIS
Related business
Manufacturer
Unknown
Mission
Spacecraft
Bus & Motor
Unknown
Mass
Unknown
Launch date (UTC)
1992-12-25 (33 years ago)
Launch vehicle
Unknown
Launch site
Tyuratam Missile And Space Complex (TTMTR)
Object type
Payload
Rocket body
Debris
Shape & HBR
Unknown shape, 0.1 m
Radar Cross Section
Small (<0.1 m²)

Expand to show TLE details & history
Last TLE update: 22 hours ago

TLE from 22 hours ago
0 SL-16 DEB
1 22442U 92093EK  25349.93049319  .00004981  00000-0  13170-2 0  9994
2 22442  71.0980 171.9347 0093588 342.2632  17.5246 14.46720616692704
Epoch: 2025-12-15T22:19Z
TLE epoch observation values (Epoch: 2025-12-15T22:19:54.611Z)
Latitude
-0.00005°
Longitude
112.13514°
Altitude
675.377 km
Speed
7.553 km/s
True Right ascension
11h 27m 44s
True Declination
0° 00' 00"
Sunlit
Object was in daylight at epoch
Visualization orbit readout
Latitude
Unknown
Longitude
Unknown
Altitude
Unknown
Speed
Unknown
Apparent Right ascension
Unknown
Apparent Declination
Unknown
Sunlit
N/A
Visualization observer readout
Local Sidereal Time
18:34:56
Azimuth
Unknown
Elevation
Unknown
Doppler factor
Unknown
Orbital elements
Apogee altitude
800.827 km
Perigee altitude
667.7 km
Semi-major axis
7,112.4 km
Eccentricity
0.00936
Inclination
71.098°
RAAN
171.9347°
Arg. of periapsis
342.2632°
True anomaly
17.85117°
Mean anomaly
17.5246°
Eccentric anomaly
17.68752°
Mean motion
3.61842 °/min
Orbital period
99.49 mins
BSTAR
0.001317
Loading maneuver chart data...
Computing Atmospheric mass density...
Loading historical data...
Loading historical data...
Loading historical data...
Loading historical data...
Loading historical data...
Loading historical data...
Loading historical data...

Documentation

Showing up to 5 results
|